Vertical_Velocity
-7 -2 -5 -1 1 -4 -4 -3 -4 -4 -8 -13 -1 -5 -2 -4 -6 -4 -2 -3 -4 -2 -1 -0 1 -1 -0 -0 -2 -1 -0 -1 -0 1 -1 -1 -1 1 -1 1 1 2 1 1
6 -6 -4 -4 1 0 -2 -6 -1 -2 -8 -12 1 -3 -3 -3 -0 1 1 -0 -0 -1 -1 -1 -1 -1 0 -1 -1 0 -1 1 -1 -1 1 0 -0 -0 1 2 2 3 -1 0
1 4 -3 -2 -6 -0 1 -7 -7 -3 -1 -4 -4 -5 -1 -1 -2 -4 -3 -2 -2 -3 -4 -2 1 1 -0 -0 -2 -2 -1 2 2 -0 0 0 -2 0 1 1 0 0 1 0
-3 3 4 -3 -2 -4 -1 -1 -1 -4 -0 -0 -4 -1 -2 -5 -3 -2 -1 -2 -2 -2 -1 0 -1 -0 1 2 2 2 1 1 1 -1 -1 1 0 1 0 -2 0 0 -0 3
-2 -1 4 9 -4 -4 -4 -1 -4 -6 -9 -2 1 0 -5 -1 -3 -5 -3 -2 -2 -2 -2 0 1 1 2 2 2 1 0 -2 -0 1 0 1 0 -0 1 -1 1 -1 -0 1
2 -3 -3 2 7 -4 -5 -2 3 1 -0 -2 -5 0 2 -2 -1 -0 -1 -1 -1 1 2 2 1 -1 1 1 1 0 1 -1 2 1 -0 0 -1 0 -0 1 1 -0 -0 -4
7 1 -3 -4 0 5 -2 -6 -5 -1 2 -6 -2 -1 1 1 0 2 1 2 2 -0 -0 1 2 1 0 -1 1 1 1 -1 0 1 1 -0 1 -1 -1 -2 -3 -2 -1 0
3 9 2 -1 -5 2 2 2 -4 -2 -2 3 -5 -7 -2 -0 -0 0 -1 -2 -1 -2 -2 -2 0 1 -1 -0 0 1 2 3 -1 -2 -1 1 -1 0 0 0 -2 -1 -1 -3
-5 -0 11 0 0 -5 2 -1 4 -1 -1 -2 6 -2 -6 -4 -3 -2 -1 -0 -2 -2 -2 1 -3 -1 0 -2 1 1 1 1 1 1 1 -2 1 1 -3 -0 0 0 2 2
-1 1 -6 12 2 -0 -6 -0 -2 2 -1 2 -5 4 4 -2 -3 -3 -2 -0 -1 -1 1 -1 -1 2 -0 -3 -3 -0 1 0 -0 -1 -1 -1 0 -1 -1 -1 -2 -2 -2 -1
-0 -6 4 -7 5 6 -2 -4 -3 -4 0 0 2 -4 -1 5 -1 -2 -2 -1 -3 -0 -1 -2 -2 -2 -2 -0 2 -0 -2 -3 -1 -0 -0 -1 0 1 -4 -1 -1 1 -1 -1
5 3 -6 3 -2 -1 10 0 -2 -2 -5 -1 2 0 -3 -2 3 1 -1 -3 -1 -1 -1 0 0 -0 -0 -0 -1 -0 -1 -1 -2 -2 -1 -1 -1 -1 -2 -3 -2 1 -3 -3
4 4 3 -5 2 -1 -7 8 3 -1 0 -3 -3 1 1 0 -4 3 2 2 -2 -3 -2 -2 -1 0 -0 -1 -1 -2 -1 -1 -2 -3 1 -1 -1 -1 -1 -1 -2 -2 -1 -2
-1 2 5 4 -4 3 2 -5 -3 4 1 0 0 -2 1 -1 -1 -3 1 1 -0 2 -3 -4 -3 -3 -2 -0 -0 -0 -1 -2 -1 -0 1 1 -0 2 -1 -1 0 -0 -1 -0
1 -2 -0 8 3 -0 1 1 0 -7 2 1 1 2 -1 0 -1 -2 -2 -1 2 -2 1 -1 -3 -2 -1 -3 -3 -0 0 -0 0 1 -0 -1 -1 -1 -0 1 1 0 -1 -1
-2 4 -5 3 4 6 1 0 1 0 -7 5 1 5 0 3 1 0 -2 -3 -2 -0 -0 -1 1 -4 -5 -3 0 -2 0 0 0 -1 -1 -3 0 -0 -0 -4 -2 1 0 1
0 2 1 -6 2 4 -0 5 3 -2 -2 -2 -2 3 2 5 2 -0 1 -1 -1 -2 1 2 -1 -4 -5 -1 -0 -3 -2 -2 0 1 1 -1 3 -0 2 -1 2 2 0 -1
-4 -3 4 1 -3 3 2 -4 6 -5 -2 -3 -2 2 3 -0 2 2 0 -2 -2 3 -2 6 0 -2 -4 0 -6 -1 0 -2 -3 1 1 1 -0 -1 0 5 2 1 -1 -1
1 -5 3 4 3 8 3 -17 3 6 -9 -1 2 3 4 1 3 2 1 -2 -4 -6 1 3 -2 3 4 -2 -3 -1 -0 1 -0 -3 0 -2 0 -1 1 2 -0 0 -2 1
2 0 1 -9 11 4 -5 -6 -9 -4 2 -7 15 -1 5 -1 1 4 1 -0 -6 -3 -2 -5 -1 2 -2 0 1 2 -0 -2 -1 1 -3 0 2 -0 -1 -1 -2 -1 -2 -1
4 4 4 9 3 -4 -3 -9 -4 -6 -2 0 25 -1 5 6 -0 -0 -0 1 -5 -7 2 -10 0 2 5 0 2 1 -0 0 -1 -3 -2 -2 -1 1 1 0 0 0 -1 -2
-3 2 3 9 2 -1 -9 -13 -12 12 3 -3 25 6 -4 3 -1 -2 -1 -1 -7 -1 2 -8 1 9 -3 -0 0 0 -0 0 1 -0 -2 -2 -1 -0 -0 -1 -1 -2 -1 1
-1 -6 -3 8 7 -12 -14 -7 -2 24 4 3 -2 -5 -7 1 -0 -4 0 -5 -1 1 -3 1 8 7 0 -1 2 -0 4 4 1 1 2 1 1 -0 -3 -4 -2 -0 -0 1
6 7 -14 -0 -16 -14 4 16 5 -1 3 1 1 4 1 2 -2 -8 4 -9 -3 -9 3 17 4 2 -2 -3 -0 -1 -6 -4 -6 -5 0 1 1 -3 0 1 0 1 1 -0
7 5 -6 -24 1 -4 5 6 5 6 8 4 0 -1 -2 8 -11 -2 -3 -4 -8 7 11 0 2 0 2 -3 -6 -4 -5 -3 -3 0 -1 -4 -4 -1 -5 -9 -3 0 2 3
18 -6 -21 1 5 -0 8 6 1 4 3 0 2 -1 -7 -0 -8 -4 0 -6 13 12 -6 -5 -0 1 1 0 1 -4 1 5 6 -1 -3 -2 -3 -2 0 -1 -6 -3 -8 -1
-18 -33 8 10 2 6 1 1 3 4 1 3 4 -4 8 -7 -8 -10 -1 15 8 -3 -3 -2 -2 3 -1 -1 -1 -3 -1 1 -1 -3 1 6 1 -0 -3 3 -1 -0 -4 2
Height
5718 5710 5703 5695 5688 5681 5677 5670 5665 5661 5657 5655 5651 5652 5651 5650 5651 5650 5651 5651 5652 5654 5656 5657 5658 5659 5660 5660 5661 5661 5661 5661 5660 5660 5658 5656 5655 5653 5652 5651 5650 5646 5644 5644
5724 5718 5711 5706 5699 5693 5687 5682 5676 5671 5668 5664 5664 5663 5662 5660 5659 5658 5658 5659 5659 5660 5660 5661 5661 5662 5663 5663 5663 5663 5663 5663 5662 5660 5659 5657 5655 5653 5651 5650 5648 5647 5646 5646
5732 5725 5719 5712 5709 5703 5699 5693 5688 5682 5678 5675 5674 5672 5671 5670 5669 5668 5666 5665 5665 5664 5665 5665 5665 5666 5666 5666 5666 5665 5665 5664 5663 5662 5660 5657 5655 5653 5652 5651 5650 5650 5649 5647
5735 5732 5726 5720 5715 5711 5707 5703 5699 5692 5688 5684 5682 5681 5678 5677 5677 5676 5675 5673 5672 5672 5671 5670 5670 5670 5670 5669 5668 5667 5666 5665 5664 5662 5660 5659 5657 5655 5655 5654 5654 5654 5653 5651
5738 5735 5733 5727 5721 5717 5715 5711 5706 5703 5697 5692 5690 5689 5687 5685 5683 5682 5682 5681 5680 5679 5677 5676 5674 5674 5673 5672 5670 5669 5667 5666 5664 5663 5661 5660 5659 5658 5658 5658 5658 5657 5656 5654
5739 5736 5734 5732 5728 5722 5720 5717 5714 5709 5707 5703 5698 5695 5693 5691 5690 5688 5686 5685 5684 5682 5681 5678 5677 5676 5674 5672 5671 5669 5666 5665 5664 5663 5662 5661 5662 5661 5661 5662 5661 5661 5660 5659
5741 5736 5735 5733 5730 5727 5723 5721 5718 5716 5712 5708 5706 5703 5699 5697 5694 5693 5691 5689 5687 5685 5682 5681 5678 5677 5675 5673 5671 5669 5666 5666 5665 5665 5663 5664 5664 5663 5665 5665 5665 5664 5663 5661
5740 5738 5734 5733 5731 5730 5727 5723 5721 5719 5719 5715 5710 5708 5706 5703 5700 5697 5695 5694 5691 5688 5686 5686 5684 5681 5679 5676 5674 5672 5670 5667 5668 5667 5667 5668 5666 5667 5667 5666 5667 5666 5665 5664
5738 5738 5733 5729 5730 5729 5728 5726 5723 5721 5720 5721 5718 5713 5710 5708 5706 5704 5701 5698 5696 5694 5692 5691 5690 5687 5684 5681 5680 5677 5674 5673 5672 5670 5669 5670 5670 5669 5670 5669 5668 5666 5663 5663
5733 5734 5735 5730 5725 5725 5726 5726 5725 5723 5720 5720 5721 5719 5715 5713 5711 5709 5707 5704 5701 5699 5697 5695 5692 5690 5689 5687 5685 5682 5680 5678 5676 5675 5673 5673 5672 5672 5671 5671 5672 5666 5664 5664
5728 5729 5729 5730 5728 5722 5720 5722 5722 5722 5721 5719 5718 5719 5718 5715 5713 5711 5710 5708 5706 5703 5701 5699 5697 5695 5693 5691 5689 5687 5686 5683 5681 5679 5677 5676 5675 5674 5675 5675 5673 5672 5670 5671
5727 5723 5723 5724 5725 5723 5719 5715 5716 5717 5718 5719 5716 5716 5717 5716 5714 5713 5711 5710 5708 5706 5704 5703 5701 5699 5697 5695 5692 5691 5690 5688 5686 5685 5683 5681 5680 5680 5679 5679 5678 5676 5676 5675
5724 5721 5718 5716 5718 5718 5718 5717 5711 5711 5713 5713 5714 5713 5713 5714 5713 5711 5711 5709 5707 5706 5706 5704 5702 5700 5699 5697 5696 5694 5693 5691 5690 5688 5686 5684 5684 5683 5683 5682 5682 5681 5680 5679
5714 5716 5715 5710 5709 5711 5712 5713 5713 5709 5706 5707 5709 5709 5709 5710 5710 5710 5708 5706 5705 5704 5703 5703 5701 5700 5699 5698 5697 5695 5694 5693 5692 5690 5688 5687 5686 5685 5684 5684 5683 5683 5682 5681
5703 5706 5708 5709 5702 5701 5703 5704 5704 5705 5704 5700 5702 5703 5703 5703 5705 5705 5705 5703 5702 5701 5700 5699 5699 5697 5696 5695 5694 5693 5693 5692 5691 5690 5689 5688 5687 5685 5685 5684 5683 5682 5681 5680
5691 5693 5698 5700 5701 5696 5694 5695 5696 5695 5699 5699 5692 5695 5696 5696 5697 5699 5699 5699 5698 5697 5696 5694 5694 5693 5692 5692 5690 5690 5689 5688 5687 5687 5686 5685 5684 5683 5682 5681 5681 5679 5678 5677
5683 5679 5682 5688 5690 5692 5690 5689 5687 5685 5685 5688 5692 5687 5688 5689 5689 5690 5692 5691 5691 5691 5690 5689 5688 5686 5686 5686 5685 5684 5683 5683 5682 5681 5681 5679 5679 5678 5678 5677 5676 5674 5673 5672
5666 5672 5666 5672 5677 5680 5683 5681 5675 5674 5675 5676 5679 5686 5679 5679 5680 5682 5683 5683 5683 5683 5682 5682 5680 5679 5678 5680 5677 5677 5677 5677 5676 5675 5675 5674 5672 5671 5669 5668 5667 5666 5665 5664
5646 5651 5658 5653 5661 5668 5670 5667 5667 5666 5666 5667 5672 5675 5676 5670 5669 5670 5672 5672 5673 5674 5673 5673 5671 5672 5672 5668 5670 5672 5670 5669 5668 5668 5667 5666 5665 5663 5662 5661 5660 5658 5656 5655
5627 5633 5637 5646 5647 5647 5652 5654 5655 5658 5653 5655 5664 5665 5666 5666 5663 5657 5660 5660 5661 5661 5666 5662 5660 5666 5664 5660 5659 5661 5663 5663 5660 5658 5659 5657 5656 5655 5654 5654 5653 5651 5649 5647
5607 5614 5620 5626 5629 5632 5634 5638 5641 5644 5648 5649 5654 5656 5655 5654 5652 5650 5647 5648 5648 5649 5654 5652 5651 5658 5655 5651 5650 5652 5651 5651 5652 5651 5649 5648 5646 5645 5645 5644 5643 5641 5640 5638
5588 5594 5602 5605 5608 5613 5617 5625 5628 5629 5636 5644 5644 5646 5643 5640 5641 5639 5637 5637 5635 5637 5642 5642 5642 5649 5644 5642 5640 5641 5642 5641 5641 5641 5641 5640 5639 5637 5635 5633 5632 5630 5628 5627
5565 5570 5581 5586 5587 5591 5602 5609 5616 5623 5624 5626 5626 5626 5627 5628 5631 5627 5627 5625 5625 5627 5628 5631 5637 5637 5634 5632 5632 5632 5632 5633 5633 5633 5630 5626 5625 5625 5624 5622 5621 5619 5617 5616
5548 5549 5547 5565 5572 5580 5595 5602 5603 5605 5608 5609 5612 5613 5614 5617 5617 5615 5616 5616 5616 5616 5619 5625 5625 5623 5623 5621 5621 5621 5620 5619 5619 5619 5618 5615 5613 5613 5613 5612 5612 5610 5609 5607
5529 5528 5527 5542 5566 5574 5580 5583 5586 5589 5591 5592 5596 5599 5601 5602 5604 5605 5603 5604 5605 5609 5614 5612 5610 5609 5608 5609 5610 5610 5611 5609 5609 5607 5606 5605 5607 5608 5607 5605 5603 5603 5601 5598
5506 5506 5522 5539 5545 5558 5564 5565 5568 5571 5574 5576 5580 5584 5587 5588 5591 5594 5594 5595 5598 5601 5599 5600 5596 5595 5596 5601 5602 5601 5601 5603 5599 5597 5596 5597 5597 5598 5597 5594 5591 5590 5587 5584
5485 5502 5514 5525 5530 5538 5544 5546 5552 5556 5559 5563 5564 5568 5572 5574 5577 5582 5583 5588 5586 5584 5586 5586 5585 5585 5583 5585 5589 5590 5591 5591 5590 5587 5586 5586 5585 5585 5584 5583 5580 5577 5573 5570